Погода в Янтышеве

Россия / Республика Башкортостан     51°53′19″N   57°44′10″E
темп.,
°C
ветер,
м/с
пор.,
м/с
влажн.,
%
обл.,
%
осадки,
мм/ч
давл.,
гПа
погр.,
м
3 марта, ср
ср323:00−11зюз91792100 0.3 1013643
02:00−9юз81693100 0.3 1010661
05:00−8юз81594100 0.9 1008679
08:00−6юз81594100 1.1 1006780
11:00−4юз101594100 2.2 1005939
14:00−2юз91494100 0.8 1004959
17:00−2юз81295100 1.6 1004913
20:00−3юз61196100 0.7 1003593
4 марта, чт
чт423:00−4юз51096100 1.1 1003401
02:00−4зсз5994100 0.7 1003426
05:00−10з5109695 0.7 1005203
08:00−13з6119684 0.0 1007238
11:00−9з7129287 0.1 1009535
14:00−8з81390100 0.1 1010793
17:00−9зюз8139299 0.1 1010607
20:00−10юз81693100 0.3 1010640
5 марта, пт
пт523:00−7зюз111992100 0.7 1009905
02:00−5зюз121994100 0.8 1007882
05:00−4зюз111993100 1.6 1008786
08:00−4зюз111893100 0.9 1009908
11:00−4зюз111893100 1.2 1010952
14:00−3юз111893100 0.1 1009933
17:00−2юз122095100 1.5 10091138
20:00−1зюз121997100 2.2 10071112
6 марта, сб
сб623:00−1зюз121897100 4.3 10071177
02:00−1зюз111797100 1.7 10081121
05:00−2зсз71294100 3.4 1011635
08:00−9зсз3693100 0.0 1012116
11:00−6з128397 0.0 1014246
14:00−4ююв118892 0.1 1012321
17:00−5вюв589696 1.9 1009366
20:00−1юз71397100 6.5 1006870
7 марта, вс
вс723:00−1зюз91497100 9.6 1004931
02:00−1зюз101697100 2.0 10031121
05:00−8з71295100 2.2 1006361
08:00−13зсз4996100 0.0 1009191
11:00−10зсз599299 0.1 1012429
14:00−8з6882100 0.0 1013792
17:00−10з689099 0.0 1013598
20:00−17з4899100 0.0 1016151